Temp
62 62 61 61 61 61 61 61 61 61 62 62 62 62 62 62 61 75 82 76 78 73 72 85 91 90 92 88 92 91 76 73 79 82 85 92 87 94 96 89 92 95 95 98 102
61 61 61 61 61 61 61 61 61 62 62 62 62 62 62 61 75 84 73 76 75 74 81 85 87 89 83 86 89 81 74 77 88 87 84 88 86 88 87 87 88 91 98 100 100
61 61 61 61 61 61 61 61 61 62 62 62 62 62 61 65 74 81 76 76 75 75 86 92 91 88 83 87 86 84 75 83 88 86 86 83 84 89 85 81 87 87 92 97 96
60 60 60 60 60 60 61 61 61 62 62 62 62 62 62 75 69 84 78 76 75 82 88 90 88 83 81 81 87 77 82 84 86 87 85 81 85 83 84 85 91 92 93 93 92
59 59 59 60 60 60 61 61 61 61 61 62 62 62 73 77 79 88 78 80 86 92 89 88 84 84 79 84 85 79 82 85 87 84 84 85 81 81 82 89 92 92 91 90 90
59 59 59 59 59 60 60 60 60 61 61 61 62 61 75 73 92 94 92 93 93 92 90 89 85 85 79 81 79 83 82 82 84 83 84 80 81 82 84 90 89 88 87 88 89
58 58 58 59 59 60 60 60 61 61 61 63 63 74 78 79 94 95 94 92 92 91 86 89 88 83 84 78 85 82 73 78 80 82 81 83 73 75 86 88 85 86 87 88 89
58 57 57 58 59 59 60 61 62 63 63 64 64 77 77 93 96 93 94 91 93 93 89 90 89 83 80 84 79 74 75 68 82 82 81 78 66 80 87 84 83 84 85 86 88
57 57 57 58 58 59 59 60 63 64 64 65 74 77 76 84 87 91 92 87 90 90 90 89 85 80 81 73 70 75 66 71 75 83 81 77 69 79 85 83 82 83 84 86 86
57 57 57 57 58 58 58 59 65 66 75 85 88 81 84 81 87 89 92 88 84 85 83 81 79 74 77 73 62 65 66 69 69 77 79 75 73 80 83 82 81 83 84 85 86
57 57 57 57 57 57 66 81 79 76 81 79 80 80 82 88 90 86 89 87 85 80 72 81 72 68 73 73 72 70 67 66 71 77 74 72 72 76 80 81 80 82 83 84 85
57 57 57 57 57 56 65 78 82 85 75 84 83 84 85 87 79 83 89 79 77 70 77 74 68 76 76 74 71 69 66 66 72 77 73 70 68 74 78 79 81 81 81 82 84
56 56 56 56 56 69 86 83 92 91 75 79 82 81 81 85 77 77 83 78 74 71 73 69 74 77 73 71 68 68 66 66 65 70 71 68 66 71 79 82 83 83 83 83 82
55 55 55 54 65 90 85 90 93 90 66 71 76 80 83 82 74 83 84 77 75 70 72 71 77 72 70 68 70 61 71 68 65 61 54 68 52 65 72 75 80 81 81 81 81
55 55 55 54 74 84 86 92 93 84 52 73 76 88 83 77 77 78 84 78 69 69 70 69 70 69 65 68 69 62 70 66 64 60 59 61 57 64 73 68 66 75 79 81 81
55 55 55 75 78 90 93 90 84 62 52 68 76 74 75 77 76 79 78 81 79 70 72 70 78 74 69 70 70 72 67 66 65 63 52 60 60 60 68 67 69 72 78 79 79
54 54 56 81 81 93 91 82 62 57 73 68 69 74 72 71 72 72 70 69 63 56 60 66 71 74 71 64 70 68 60 49 48 49 50 63 55 58 69 74 74 73 75 78 78
54 52 67 87 92 90 83 70 55 68 68 74 72 73 65 70 70 69 68 65 68 64 58 57 56 68 72 66 61 61 59 49 39 42 48 60 52 62 66 71 72 72 73 75 73
52 80 80 89 90 86 75 61 62 66 70 67 71 65 67 70 67 67 67 64 66 65 53 53 56 69 70 69 66 61 55 64 52 54 48 54 62 67 64 61 65 60 67 69 71
67 81 84 90 88 80 70 59 68 72 70 70 61 66 61 65 63 64 64 68 64 66 67 59 48 64 68 69 68 64 67 50 52 36 37 50 52 56 61 64 64 63 65 68 70
69 75 86 91 86 74 64 67 70 73 70 65 64 63 64 62 63 62 62 67 67 65 67 62 55 55 63 60 59 61 58 59 55 50 38 37 47 65 63 63 62 66 66 67 68
71 71 88 89 70 75 68 68 55 71 72 69 68 65 63 63 59 61 61 64 68 66 57 63 55 47 53 64 68 65 60 59 41 41 46 41 42 65 66 68 68 64 64 68 67
69 77 88 85 65 67 71 70 70 68 68 66 64 68 68 61 49 59 62 70 68 63 58 59 51 40 47 60 65 56 58 58 55 49 38 35 43 66 67 67 64 61 64 66 66
70 68 77 80 75 65 64 67 65 71 67 68 66 67 63 60 64 58 61 67 70 65 58 58 50 45 39 47 54 49 54 56 52 35 43 44 49 57 61 61 59 61 63 64 63
74 67 66 62 67 65 66 65 63 63 69 68 63 65 61 41 56 55 61 62 66 66 62 57 46 51 52 54 55 53 52 55 51 52 41 48 51 57 59 52 58 61 61 60 60
64 62 65 64 67 65 59 64 63 64 63 61 59 63 63 55 55 51 59 58 56 62 59 62 48 51 47 53 53 49 55 56 56 57 55 55 53 62 63 61 59 57 56 56 57
69 69 64 59 65 64 64 63 61 64 65 67 64 60 58 61 63 63 62 60 59 55 53 53 46 37 37 50 49 40 49 54 56 59 55 46 55 60 56 54 52 53 53 53 54
MSLP
1015.57 1015.18 1014.76 1014.48 1014.21 1013.98 1013.85 1013.71 1013.50 1013.28 1013.05 1012.75 1012.43 1012.22 1012.15 1011.95 1011.21 1010.64 1009.25 1009.96 1009.48 1009.31 1009.33 1008.10 1006.81 1006.31 1005.91 1005.13 1004.44 1004.48 1003.68 1001.88 1000.81 999.98 999.38 999.22 999.47 999.55 999.98 1000.74 1001.13 1001.17 1000.88 1000.87 1001.13
1015.74 1015.18 1014.85 1014.47 1014.16 1013.97 1013.71 1013.46 1013.27 1013.09 1012.91 1012.64 1012.39 1012.25 1012.17 1011.92 1010.85 1009.05 1009.80 1009.52 1009.32 1009.26 1008.66 1007.11 1005.67 1005.63 1005.20 1004.34 1003.88 1003.96 1003.10 1001.77 1000.88 1000.79 1000.60 1000.50 1000.66 1000.63 1000.84 1000.91 1001.18 1001.10 1000.87 1000.98 1001.19
1015.70 1015.24 1014.75 1014.41 1014.20 1013.97 1013.65 1013.32 1013.07 1012.84 1012.67 1012.39 1012.24 1012.23 1012.09 1011.84 1010.19 1008.76 1009.43 1009.44 1009.19 1008.94 1008.12 1006.52 1005.90 1005.17 1004.39 1003.81 1003.31 1003.26 1002.86 1002.16 1001.07 1001.56 1001.78 1001.62 1001.66 1001.61 1001.44 1001.32 1001.33 1001.37 1001.18 1001.02 1001.28
1015.52 1015.03 1014.54 1014.32 1014.21 1013.80 1013.56 1013.22 1012.84 1012.52 1012.40 1012.21 1012.09 1012.01 1011.71 1010.99 1008.85 1008.84 1009.20 1009.08 1008.71 1008.40 1007.42 1005.82 1005.21 1004.71 1003.91 1003.19 1002.94 1003.01 1003.07 1002.53 1001.93 1002.09 1002.24 1002.26 1002.08 1001.96 1001.89 1001.68 1001.69 1001.74 1001.83 1001.85 1001.93
1015.73 1015.06 1014.42 1013.85 1013.73 1013.78 1013.31 1012.85 1012.61 1012.40 1012.28 1012.21 1012.22 1011.98 1011.25 1009.51 1008.22 1008.82 1009.02 1008.48 1008.09 1006.93 1006.37 1005.47 1004.92 1004.33 1003.62 1002.87 1002.75 1002.95 1002.88 1002.49 1002.08 1002.69 1002.81 1002.78 1002.50 1002.17 1001.95 1001.97 1001.90 1001.84 1001.93 1001.99 1002.20
1016.14 1015.33 1014.66 1014.12 1013.54 1013.19 1013.06 1012.69 1012.28 1012.22 1012.11 1012.14 1012.15 1012.05 1010.89 1008.34 1007.70 1007.87 1007.91 1007.37 1006.83 1006.29 1005.90 1005.66 1005.27 1005.25 1004.81 1003.71 1003.50 1003.07 1003.07 1002.89 1002.56 1002.51 1002.56 1002.60 1002.38 1002.47 1002.07 1001.78 1001.67 1001.93 1002.13 1002.22 1002.33
1016.73 1015.92 1015.09 1014.16 1013.68 1013.23 1012.73 1012.56 1012.12 1011.87 1011.94 1011.96 1011.97 1011.55 1009.67 1008.04 1007.59 1007.45 1007.43 1007.03 1007.14 1006.86 1006.20 1006.18 1006.23 1005.85 1004.87 1004.19 1003.63 1003.53 1003.51 1002.89 1002.20 1001.94 1002.08 1002.36 1002.49 1002.09 1001.41 1001.42 1001.48 1001.53 1001.62 1001.88 1002.03
1016.89 1016.27 1015.44 1014.59 1013.86 1013.20 1012.82 1012.45 1012.13 1011.96 1011.78 1011.67 1011.83 1011.05 1008.67 1007.83 1007.43 1007.25 1007.05 1006.85 1007.00 1006.95 1006.98 1006.72 1006.79 1006.19 1005.47 1004.69 1004.50 1003.88 1003.39 1002.19 1000.41 1001.16 1001.98 1002.74 1001.93 1001.74 1001.30 1001.35 1001.39 1001.44 1001.61 1001.57 1001.60
1016.87 1016.35 1015.59 1014.74 1013.95 1013.47 1012.94 1012.54 1012.05 1011.74 1011.51 1011.42 1011.21 1009.82 1007.93 1008.15 1007.51 1007.46 1007.44 1006.98 1006.77 1006.83 1006.91 1007.07 1006.79 1005.83 1005.16 1004.75 1003.83 1002.32 1002.35 1001.35 1000.75 1000.82 1001.18 1001.57 1001.45 1001.61 1001.37 1001.00 1000.75 1000.86 1000.88 1000.85 1001.06
1016.61 1016.09 1015.57 1014.80 1014.04 1013.48 1012.95 1012.62 1011.86 1011.45 1010.67 1010.04 1009.05 1007.91 1007.53 1007.15 1007.55 1007.69 1007.41 1007.65 1007.15 1006.58 1006.23 1006.17 1005.89 1005.11 1004.19 1003.61 1003.06 1002.84 1002.77 1002.38 1001.64 1001.34 1001.23 1000.99 1000.68 1000.66 1000.64 1000.47 1000.19 1000.08 1000.07 1000.13 1000.30
1016.57 1015.79 1015.22 1014.63 1013.93 1013.69 1012.79 1012.01 1011.82 1010.79 1009.62 1008.28 1007.66 1007.19 1007.19 1007.37 1007.84 1007.31 1007.41 1006.87 1006.67 1006.52 1005.66 1004.55 1004.73 1003.94 1003.52 1003.99 1004.23 1004.20 1003.70 1003.08 1002.55 1002.15 1001.65 1001.14 1000.69 1000.55 1000.33 1000.08 999.65 999.29 999.19 999.39 999.62
1016.51 1015.80 1014.84 1014.18 1013.58 1013.29 1013.47 1011.06 1009.44 1009.10 1008.08 1007.83 1007.76 1007.41 1007.66 1007.56 1006.99 1007.03 1007.40 1006.63 1006.12 1005.79 1005.02 1004.63 1003.79 1003.61 1004.21 1004.66 1004.68 1004.50 1003.97 1003.22 1002.55 1002.18 1002.02 1001.62 1000.97 1000.78 1000.00 999.01 998.71 998.83 999.02 999.28 999.54
1016.41 1015.64 1014.93 1013.86 1013.17 1012.00 1010.49 1009.95 1009.30 1008.71 1007.90 1007.32 1007.49 1007.33 1007.37 1007.16 1006.91 1007.31 1007.59 1007.16 1006.29 1005.51 1004.67 1004.25 1003.61 1004.01 1004.56 1004.63 1004.47 1004.18 1003.87 1003.47 1003.21 1003.02 1002.96 1002.26 1000.61 999.47 998.50 998.30 998.32 998.58 999.11 999.51 999.96
1016.49 1015.52 1014.81 1013.82 1013.18 1009.97 1009.51 1009.43 1008.94 1009.08 1007.79 1007.02 1006.87 1007.14 1007.10 1007.13 1007.05 1007.69 1007.64 1007.53 1006.16 1005.42 1005.24 1004.64 1004.05 1004.63 1004.71 1004.68 1004.68 1004.37 1004.40 1004.39 1004.13 1003.92 1002.93 1002.80 1000.55 999.80 998.95 997.92 997.63 998.08 998.92 999.69 1000.26
1016.42 1015.47 1014.62 1014.61 1012.52 1009.88 1009.89 1009.31 1008.91 1009.24 1007.25 1006.89 1006.68 1007.32 1007.05 1006.88 1007.27 1007.01 1007.59 1007.19 1006.65 1006.26 1006.20 1004.47 1004.62 1004.81 1005.11 1005.08 1005.58 1005.46 1005.34 1005.17 1004.91 1004.24 1003.31 1002.21 1001.49 998.52 998.23 997.99 998.89 998.93 999.61 1000.02 1000.52
1016.22 1015.30 1014.68 1012.33 1011.90 1009.80 1009.47 1009.74 1009.57 1008.66 1006.49 1006.63 1006.67 1006.65 1006.13 1006.28 1006.68 1007.02 1006.94 1007.26 1006.70 1006.76 1006.21 1005.58 1005.17 1004.86 1005.65 1006.13 1006.00 1005.68 1005.37 1004.85 1004.20 1003.27 1002.41 1001.07 1000.43 999.58 998.20 998.93 999.46 1000.07 1000.39 1000.62 1001.23
1015.76 1014.87 1014.66 1012.21 1010.48 1009.90 1009.83 1009.54 1008.69 1006.97 1006.48 1006.40 1006.44 1006.40 1006.50 1006.35 1006.62 1007.08 1006.99 1006.64 1007.28 1007.18 1006.36 1006.02 1004.47 1005.11 1006.33 1006.39 1005.93 1005.64 1005.68 1004.98 1003.90 1003.42 1002.32 1001.37 1001.13 1000.91 999.62 999.08 999.24 1000.49 1000.84 1001.11 1001.61
1015.21 1014.59 1012.56 1011.23 1010.31 1010.28 1010.01 1009.37 1007.75 1006.34 1006.37 1007.01 1006.83 1006.67 1006.84 1007.11 1006.90 1007.38 1007.14 1006.97 1007.85 1008.37 1007.92 1006.56 1005.46 1005.57 1006.24 1006.57 1006.63 1006.50 1006.45 1006.27 1005.37 1004.86 1003.60 1003.24 1001.46 1000.58 1001.35 1001.91 1002.09 1001.95 1001.93 1002.01 1002.70
1014.54 1012.72 1011.87 1010.47 1010.67 1010.71 1009.93 1008.35 1007.47 1007.62 1007.94 1007.85 1007.04 1006.67 1006.23 1006.85 1007.67 1007.48 1007.19 1007.72 1008.55 1009.34 1009.57 1008.56 1006.94 1006.55 1006.79 1006.84 1007.47 1006.40 1006.61 1006.59 1006.61 1006.21 1004.99 1003.47 1001.55 1001.17 1001.97 1002.28 1003.52 1004.24 1004.14 1004.31 1004.01
1015.02 1011.65 1010.29 1010.32 1010.67 1010.65 1009.57 1008.18 1008.02 1008.76 1009.03 1008.57 1007.93 1007.63 1007.41 1007.46 1007.90 1007.78 1007.77 1008.24 1009.00 1009.90 1010.44 1009.94 1009.00 1007.90 1007.02 1007.19 1007.10 1006.54 1006.91 1007.24 1007.62 1007.43 1006.00 1003.85 1002.78 1001.93 1002.05 1002.64 1003.31 1004.20 1004.74 1004.77 1004.53
1014.63 1011.12 1010.16 1010.06 1010.35 1010.04 1008.72 1008.46 1008.77 1009.39 1010.00 1009.52 1008.94 1008.79 1008.60 1008.67 1008.79 1008.74 1008.54 1008.78 1009.61 1010.15 1010.81 1010.84 1010.51 1009.04 1008.31 1007.41 1006.38 1006.36 1006.49 1006.99 1007.76 1008.28 1007.57 1005.97 1003.67 1002.55 1002.31 1002.93 1003.75 1004.05 1004.70 1004.70 1004.70
1014.06 1010.50 1010.07 1009.91 1009.70 1008.38 1008.77 1009.78 1010.97 1009.72 1009.93 1009.96 1010.01 1009.87 1009.76 1009.88 1009.80 1009.56 1009.13 1009.24 1010.38 1011.09 1011.44 1011.50 1011.25 1010.04 1009.08 1007.74 1007.18 1006.95 1007.00 1007.45 1008.37 1008.76 1008.45 1007.73 1003.73 1004.33 1003.59 1003.15 1003.28 1003.88 1004.67 1004.39 1004.98
1014.60 1010.96 1009.86 1009.71 1009.28 1008.93 1009.50 1009.80 1010.27 1010.27 1010.14 1010.29 1010.35 1010.38 1010.56 1010.84 1011.03 1010.68 1010.15 1010.04 1010.76 1011.37 1011.78 1012.49 1012.16 1011.28 1009.12 1007.11 1006.82 1007.62 1008.03 1008.32 1008.78 1009.09 1008.80 1008.34 1004.07 1004.59 1004.07 1003.72 1003.92 1004.44 1004.68 1004.67 1005.00
1015.24 1011.63 1010.45 1010.13 1010.69 1011.15 1010.70 1009.92 1010.04 1010.45 1010.87 1010.88 1011.00 1011.10 1011.17 1011.19 1011.18 1010.81 1010.43 1010.16 1010.30 1011.16 1012.09 1012.91 1013.12 1012.60 1011.11 1009.96 1009.62 1008.71 1008.49 1008.67 1008.96 1008.90 1008.13 1006.44 1004.59 1004.71 1004.25 1004.04 1005.00 1005.06 1005.07 1005.01 1005.17
1015.17 1013.99 1014.27 1012.30 1011.66 1012.18 1011.71 1011.33 1010.79 1010.44 1010.74 1011.33 1011.26 1011.13 1011.37 1012.13 1011.86 1011.74 1011.10 1010.96 1010.79 1010.73 1011.56 1012.39 1012.19 1012.25 1011.36 1010.60 1009.72 1008.73 1008.04 1007.52 1007.29 1006.70 1006.24 1005.15 1004.41 1003.81 1004.08 1005.31 1005.53 1005.34 1005.36 1005.55 1005.44
1017.14 1016.67 1015.95 1014.30 1013.36 1012.67 1012.05 1011.42 1011.50 1011.44 1011.84 1011.76 1011.91 1011.80 1012.00 1012.06 1012.03 1011.79 1011.38 1011.40 1011.07 1010.90 1010.93 1010.82 1011.06 1011.92 1010.93 1010.99 1010.28 1008.43 1007.29 1006.29 1005.69 1005.21 1004.76 1004.28 1003.90 1004.10 1004.30 1005.27 1005.69 1006.00 1006.12 1005.96 1005.57
1019.02 1018.51 1017.13 1015.20 1013.54 1012.84 1012.17 1012.58 1012.68 1012.77 1012.56 1012.33 1012.35 1012.51 1012.58 1012.51 1012.48 1012.55 1012.44 1011.89 1011.29 1011.17 1011.16 1011.42 1011.73 1012.79 1011.07 1011.39 1010.17 1008.26 1006.45 1005.67 1004.95 1004.83 1004.59 1004.69 1004.74 1004.99 1005.56 1006.32 1006.93 1006.88 1006.98 1006.43 1006.18
Wind_Speed
15 14 13 12 11 9 8 6 7 7 8 10 12 12 12 13 16 7 3 5 6 9 10 12 9 10 12 13 13 11 8 13 18 20 13 8 3 2 6 2 6 11 13 9 7
16 15 13 11 10 10 9 9 8 8 8 10 11 11 11 11 12 2 2 4 8 8 10 11 9 7 10 11 9 9 10 17 17 10 12 12 7 7 9 10 10 14 12 13 6
19 16 14 13 10 9 9 10 9 9 9 10 11 10 10 12 10 10 3 5 10 12 15 10 9 8 12 11 11 14 14 18 18 9 10 14 10 10 13 14 15 12 14 11 7
22 20 18 15 11 11 9 8 10 11 10 10 10 11 11 9 2 7 4 9 13 13 16 8 10 11 14 14 15 9 15 17 14 14 10 14 16 15 15 16 17 16 15 15 13
22 22 22 20 16 11 10 9 9 10 10 9 8 9 7 5 10 9 7 14 13 16 6 6 10 7 11 9 7 11 16 16 8 11 13 14 15 18 18 18 18 16 15 15 13
21 22 22 21 20 17 10 7 8 8 9 7 6 7 7 2 4 7 7 10 7 8 4 9 9 9 10 10 11 14 14 14 15 15 14 16 16 15 18 16 12 10 14 12 14
20 20 21 22 20 17 14 8 7 7 7 7 4 6 9 7 3 4 9 4 3 6 11 6 9 10 13 11 9 10 14 15 18 15 15 9 13 19 17 14 13 15 12 16 15
21 21 21 21 21 18 15 12 8 6 8 8 4 6 4 5 5 6 4 7 3 3 5 6 11 11 9 9 12 14 15 13 10 9 4 6 15 15 14 5 14 14 14 15 15
21 21 21 22 21 18 16 14 13 11 10 9 7 9 7 3 3 4 5 8 7 5 6 5 7 8 9 11 13 18 11 14 10 13 8 12 18 15 19 19 17 16 16 16 16
24 22 20 20 20 18 16 9 9 13 8 9 12 8 5 1 5 6 1 4 8 8 10 12 10 13 13 12 10 15 15 15 18 17 19 19 20 17 17 20 19 18 17 16 15
25 24 22 20 19 14 12 5 6 7 12 6 7 3 4 2 3 6 4 10 10 12 12 8 9 11 11 11 12 13 16 17 18 18 21 20 20 19 19 21 20 19 16 15 14
26 25 25 22 20 13 5 8 6 8 5 3 0 4 1 3 5 4 8 9 3 10 10 8 16 3 8 9 12 13 17 18 16 16 17 20 24 23 23 24 20 8 8 10 10
27 26 24 24 21 10 2 7 9 6 7 8 2 2 2 5 1 6 9 9 10 11 9 9 14 10 7 9 13 14 15 16 19 18 18 21 25 21 16 16 12 5 3 5 6
27 26 24 26 5 4 3 8 5 4 7 11 7 5 2 1 5 3 6 7 6 6 7 9 5 6 9 12 13 14 16 17 18 18 17 18 19 21 21 21 20 6 5 5 4
27 26 24 8 11 7 7 6 3 3 6 3 7 3 4 3 7 5 2 5 8 10 7 2 7 10 10 9 10 15 15 16 19 20 22 21 14 20 20 8 13 11 2 5 9
27 25 21 5 8 8 6 1 4 7 1 7 1 1 6 5 2 5 2 4 6 9 9 12 12 7 6 12 13 15 18 18 19 19 16 22 18 17 10 8 8 5 6 7 8
28 24 12 9 7 8 5 5 7 7 3 5 4 4 6 3 5 2 8 4 7 9 4 16 12 9 1 10 11 14 15 10 6 10 12 10 4 7 24 20 9 7 7 3 4
30 22 9 9 7 6 4 7 7 6 7 3 4 8 2 7 4 5 7 5 8 8 11 7 6 3 3 10 11 15 8 6 12 14 19 22 14 10 14 16 22 24 18 15 15
30 6 6 1 4 3 6 7 8 10 7 9 12 6 5 6 3 4 7 1 6 6 6 8 7 22 17 4 7 9 9 12 12 16 17 14 21 7 15 14 11 10 15 16 15
7 9 5 5 3 4 7 5 5 6 6 6 8 4 8 10 9 8 9 7 2 3 3 6 12 12 10 4 15 18 11 8 5 6 13 12 20 17 3 12 6 4 10 14 13
5 6 6 5 4 7 6 7 4 8 7 6 10 8 10 9 7 9 5 1 6 2 7 11 9 11 18 18 16 13 10 12 7 9 10 16 11 14 17 19 2 11 16 14 15
7 5 5 3 7 5 8 6 2 5 1 5 5 7 7 8 9 10 9 1 7 4 9 10 7 14 20 25 21 14 14 12 1 9 11 12 21 16 21 18 18 16 16 16 13
8 4 4 6 5 9 5 7 2 5 4 4 7 8 7 8 6 7 8 5 2 3 4 6 4 10 9 6 7 2 11 16 13 7 12 15 16 17 21 23 15 18 16 14 15
7 4 5 2 5 9 9 9 6 7 4 6 9 12 11 11 10 9 12 11 8 6 11 5 7 12 11 15 19 24 23 20 18 8 17 22 32 24 21 17 15 18 18 18 18
4 5 5 7 6 10 8 10 10 8 1 7 6 9 9 2 10 16 13 16 19 11 9 9 14 17 20 21 23 25 28 26 24 23 22 26 30 19 16 13 17 15 15 22 23
7 6 8 11 8 10 6 6 10 8 12 11 13 17 15 14 12 15 20 17 17 17 18 13 16 18 24 19 23 29 26 27 27 23 21 19 23 18 15 17 14 19 24 24 22
7 8 7 9 13 7 6 8 13 13 9 10 10 12 14 15 15 16 18 19 21 20 19 18 8 2 18 16 20 20 18 15 15 18 17 13 18 19 20 14 19 22 22 23 22
Wind_Direction
4 358 352 350 346 342 336 323 312 303 298 296 297 303 316 319 300 231 43 4 326 329 319 273 225 243 234 252 240 273 256 254 262 265 325 52 343 35 84 283 288 279 278 298 344
6 356 351 344 338 335 329 321 312 302 299 294 296 307 317 328 280 112 84 322 309 306 286 245 233 221 234 234 227 216 252 252 269 341 323 339 5 339 329 303 281 281 247 249 255
4 359 351 346 338 331 321 310 301 294 294 296 302 315 320 311 264 86 168 263 271 277 267 282 281 262 246 240 243 238 247 267 292 353 337 313 300 289 285 272 273 279 290 311 323
359 356 350 348 350 339 323 302 290 285 286 292 309 325 321 270 23 95 183 256 262 267 280 261 247 246 247 239 229 239 269 273 294 301 312 296 310 295 289 287 296 290 294 293 287
358 353 348 344 348 351 330 310 285 273 273 283 309 321 286 203 87 134 223 244 255 274 254 301 281 296 270 277 277 258 264 269 246 268 276 276 278 285 282 285 281 277 282 279 271
356 351 345 342 341 342 342 320 293 274 271 281 293 303 256 169 104 149 252 262 343 319 358 342 356 347 296 292 278 309 307 295 291 279 279 281 278 293 282 280 264 245 260 269 277
359 352 345 338 340 340 339 346 315 288 274 267 275 286 278 89 312 172 235 347 350 344 327 28 336 303 322 285 303 308 288 283 266 254 252 326 291 260 260 249 261 271 281 275 249
358 353 345 338 337 335 334 330 324 296 280 265 262 276 71 12 334 237 323 251 229 269 330 335 332 293 275 302 297 265 262 275 320 179 222 231 276 296 278 296 290 273 268 278 266
351 352 344 337 332 329 324 319 303 303 272 269 246 217 130 135 226 20 317 312 344 276 252 284 283 274 299 246 273 231 251 294 218 179 212 219 282 279 286 278 284 274 266 258 254
345 344 339 333 327 326 316 292 311 300 228 250 262 264 164 159 54 301 317 254 277 298 269 216 241 242 240 243 298 331 324 313 305 310 304 293 282 287 293 284 286 279 271 267 264
342 340 337 331 324 330 321 244 217 206 241 327 25 46 109 15 167 238 345 283 244 248 261 233 269 277 359 4 330 310 298 295 294 296 288 284 287 288 291 283 279 272 265 262 266
340 338 333 329 322 315 268 254 32 317 270 195 180 139 266 273 231 115 325 306 309 272 294 252 228 9 12 313 293 287 283 282 289 299 309 307 298 290 276 266 260 293 285 305 297
337 335 333 325 322 291 286 356 307 321 269 144 95 350 331 280 69 12 341 317 276 270 270 296 304 18 322 299 292 290 294 301 308 318 295 279 273 278 295 312 243 204 288 290 309
335 332 331 323 300 303 50 334 268 6 267 139 183 112 252 116 191 3 347 316 268 315 322 274 24 311 295 304 313 306 331 320 309 307 295 312 296 284 276 266 246 181 85 24 21
333 329 326 320 309 21 343 326 318 253 259 111 103 46 194 7 330 127 37 314 292 328 307 334 340 321 317 329 339 302 309 303 295 283 283 278 269 279 278 355 35 31 41 20 20
332 327 330 235 223 3 346 39 240 232 144 131 261 316 261 157 99 303 286 201 262 290 277 274 274 263 328 326 292 296 294 290 279 266 256 268 265 282 281 94 167 215 302 54 40
330 323 312 312 342 350 328 237 244 260 174 96 13 341 335 330 306 318 322 291 3 330 306 321 281 100 116 316 319 326 322 319 304 319 307 20 5 245 310 352 72 77 352 357 357
327 319 230 269 338 346 259 238 260 63 49 57 277 304 262 13 22 331 292 346 122 359 316 340 309 159 63 309 322 300 282 283 295 305 306 313 293 314 26 44 15 15 1 22 15
314 234 245 17 357 285 255 251 14 12 14 348 299 254 192 156 208 305 310 280 32 7 340 314 275 332 312 14 329 327 297 337 303 293 288 277 278 91 65 50 350 30 329 346 344
313 278 82 321 93 249 254 264 37 52 340 323 299 20 330 335 328 334 315 89 342 96 342 316 301 292 296 289 260 239 264 308 298 294 294 293 314 304 83 3 61 305 359 332 320
266 246 69 325 180 250 268 26 4 87 354 329 337 307 313 317 317 312 287 154 127 319 329 297 264 282 304 282 288 318 262 251 278 274 268 290 269 309 333 323 222 336 342 334 335
310 292 38 327 263 231 43 20 346 326 222 296 310 297 300 336 307 300 303 40 67 346 304 316 292 286 286 284 273 258 276 296 66 282 274 289 270 284 284 319 313 360 335 327 330
302 310 89 299 312 3 50 302 211 306 335 315 304 300 311 305 319 303 305 350 216 249 342 12 311 313 306 257 119 278 310 313 297 301 279 283 279 316 304 302 345 340 316 319 314
285 319 23 303 89 344 4 308 327 151 299 288 296 307 289 292 303 283 277 292 296 216 148 159 237 248 266 289 304 293 290 288 283 267 278 261 281 287 289 301 341 317 318 314 322
342 43 16 326 17 335 312 307 299 310 166 332 288 281 288 215 288 293 282 309 297 271 218 214 250 261 268 277 285 297 295 291 280 268 246 266 268 297 298 6 304 319 325 320 310
357 353 341 294 318 303 284 306 341 347 341 314 308 312 314 302 296 297 308 305 293 292 287 255 263 269 272 286 291 285 285 284 286 290 291 312 305 316 335 339 333 333 326 312 306
20 343 285 297 286 296 9 344 317 320 309 308 310 314 299 301 318 308 302 289 277 276 274 282 281 81 270 291 306 292 270 274 292 293 280 287 308 327 329 335 327 316 310 305 308